Flight Track Log - Related Links

Times and Time Zones

All times are in EST time to prevent confusion due to time zone crossing. See the N559LC flight status page for this flight to view local times or setup timezone preferences in your user account.

Time Position Orientation Groundspeed Altitude Reporting Facility
EST Latitude Longitude Course Direction KTS MPH feet Rate Location/Type
22:31 32.8500 -96.8500 320° Northwest 135 155 1,500  Level Dallas / Fort Worth TRACON
22:32 32.9000 -96.9000 320° Northwest 229 264 4,500 2,905 Climbing Dallas / Fort Worth TRACON
22:33 32.9333 -96.8333 59° Northeast 250 288 7,600 2,819 Climbing Dallas / Fort Worth TRACON
22:35 32.9758 -96.6756 72° East 316 364 12,300 2,494 Climbing Fort Worth Center
22:36 33.0056 -96.5806 70° East 354 407 14,500 2,727 Climbing Fort Worth Center
22:37 33.0508 -96.4347 70° East 386 444 17,800 2,311 Climbing Fort Worth Center
22:38 33.0903 -96.3072 70° East 409 471 19,200 1,785 Climbing Fort Worth Center
22:39 33.1297 -96.1725 71° East 428 493 21,400 2,083 Climbing Fort Worth Center
22:40 33.1711 -96.0328 70° East 445 512 23,400 2,164 Climbing Fort Worth Center
22:41 33.2142 -95.8903 70° East 458 527 25,800 1,686 Climbing Fort Worth Center
22:42 33.2567 -95.7447 71° East 465 535 26,800 1,190 Climbing Fort Worth Center
22:43 33.3011 -95.5886 71° East 491 565 28,200 1,339 Climbing Fort Worth Center
22:44 33.3417 -95.4461 71° East 506 582 29,500 1,388 Climbing Fort Worth Center
22:45 33.3883 -95.2839 71° East 515 593 31,000 1,475 Climbing Fort Worth Center
22:46 33.4358 -95.1183 71° East 524 603 32,500 1,835 Climbing Fort Worth Center
22:47 33.4950 -94.9175 70° East 532 612 34,700 1,934 Climbing Fort Worth Center
22:48 33.5411 -94.7506 72° East 528 608 36,400 1,672 Climbing Fort Worth Center
22:49 33.5889 -94.5842 71° East 528 608 38,100 1,686 Climbing Fort Worth Center
22:50 33.6356 -94.4186 71° East 523 602 39,800 1,537 Climbing Fort Worth Center
22:51 33.6825 -94.2525 71° East 522 601 41,200 1,377 Climbing Fort Worth Center
22:52 33.7478 -94.0994 63° Northeast 513 590 42,600 893 Climbing Fort Worth Center
22:53 33.8236 -93.9514 58° Northeast 513 590 43,000 768 Climbing Fort Worth Center
22:54 33.8967 -93.7994 60° Northeast 520 598 44,200 952 Climbing Memphis Center
22:55 33.9686 -93.6511 60° Northeast 515 593 45,000 397 Climbing Memphis Center
22:56 34.0425 -93.5017 59° Northeast 516 594 45,000  Level Memphis Center
22:57 34.1156 -93.3517 60° Northeast 517 595 45,000  Level Memphis Center
22:58 34.1894 -93.2019 59° Northeast 518 596 45,000  Level Memphis Center
22:59 34.2622 -93.0503 60° Northeast 521 600 45,000  Level Memphis Center
23:00 34.3411 -92.8894 59° Northeast 521 600 45,000  Level Memphis Center
23:01 34.4142 -92.7381 60° Northeast 522 601 45,000  Level Memphis Center
23:02 34.5122 -92.6161 46° Northeast 510 587 45,000  Level Memphis Center
23:03 34.6181 -92.5089 40° Northeast 501 577 45,000  Level Memphis Center
23:04 34.7253 -92.4003 40° Northeast 503 579 45,000  Level Memphis Center
23:05 34.8353 -92.2867 40° Northeast 516 594 45,000  Level Memphis Center
23:06 34.9450 -92.1733 40° Northeast 521 600 45,000  Level Memphis Center
23:07 35.0536 -92.0597 41° Northeast 520 598 45,000  Level Memphis Center
23:08 35.1619 -91.9478 40° Northeast 517 595 45,000  Level Memphis Center
23:09 35.2689 -91.8358 41° Northeast 512 589 45,000  Level Memphis Center
23:10 35.3781 -91.7217 40° Northeast 515 593 45,000  Level Memphis Center
23:11 35.5094 -91.5844 40° Northeast 517 595 45,000  Level Memphis Center
23:12 35.6183 -91.4692 41° Northeast 519 597 45,000  Level Memphis Center
23:13 35.7100 -91.3733 40° Northeast 518 596 45,000  Level Memphis Center
23:14 35.8194 -91.2569 41° Northeast 518 596 45,000  Level Memphis Center
23:15 35.9275 -91.1397 41° Northeast 517 595 45,000  Level Memphis Center
23:16 36.0592 -91.0000 41° Northeast 517 595 45,000  Level Memphis Center
23:17 36.1664 -90.8836 41° Northeast 514 592 45,000  Level Memphis Center
23:18 36.2722 -90.7694 41° Northeast 508 585 45,000  Level Memphis Center
23:19 36.3781 -90.6544 41° Northeast 504 580 45,000  Level Memphis Center
23:20 36.4842 -90.5389 41° Northeast 505 581 45,000  Level Memphis Center
23:21 36.5908 -90.4219 41° Northeast 507 583 45,000  Level Memphis Center
23:22 36.6992 -90.3044 41° Northeast 511 588 45,000  Level Memphis Center
23:23 36.8047 -90.1869 42° Northeast 509 586 45,000  Level Memphis Center
23:24 36.9114 -90.0700 41° Northeast 507 583 45,000  Level Memphis Center
23:25 37.0175 -89.9517 42° Northeast 507 583 45,000  Level Memphis Center
23:26 37.1261 -89.8317 41° Northeast 512 589 45,000  Level Memphis Center
23:27 37.2328 -89.7111 42° Northeast 513 590 45,000  Level Memphis Center
23:28 37.3186 -89.6150 42° Northeast 513 590 45,000  Level Memphis Center
23:29 37.4461 -89.4722 42° Northeast 511 588 45,000  Level Memphis Center
23:30 37.5514 -89.3519 42° Northeast 510 587 45,000  Level Memphis Center
23:31 37.6569 -89.2328 42° Northeast 508 585 45,000  Level Memphis Center
23:32 37.7644 -89.1103 42° Northeast 514 592 45,000  Level Memphis Center
23:33 37.8728 -88.9861 42° Northeast 520 598 45,000  Level Memphis Center
23:34 37.9808 -88.8617 42° Northeast 523 602 45,000  Level Memphis Center
23:35 38.0883 -88.7369 42° Northeast 522 601 45,000  Level Memphis Center
23:36 38.2189 -88.5856 42° Northeast 525 604 45,000  Level Indianapolis Center
23:37 38.3267 -88.4603 42° Northeast 522 601 45,000  Level Indianapolis Center
23:38 38.4347 -88.3344 42° Northeast 521 600 45,000  Level Indianapolis Center
23:39 38.5403 -88.2083 43° Northeast 518 596 45,000  Level Indianapolis Center
23:40 38.6478 -88.0839 42° Northeast 517 595 45,000  Level Indianapolis Center
23:41 38.7317 -87.9839 43° Northeast 512 589 45,000  Level Indianapolis Center
23:42 38.8367 -87.8583 43° Northeast 511 588 45,000  Level Indianapolis Center
23:43 38.9417 -87.7333 43° Northeast 510 587 45,000  Level Indianapolis Center
23:44 39.0458 -87.6086 43° Northeast 508 585 45,000  Level Indianapolis Center
23:45 39.1594 -87.4733 43° Northeast 511 588 45,000  Level Indianapolis Center
23:46 39.2633 -87.3467 43° Northeast 516 594 45,000  Level Indianapolis Center
23:47 39.3672 -87.2208 43° Northeast 515 593 45,000  Level Indianapolis Center
23:48 39.4697 -87.0944 44° Northeast 511 588 45,000  Level Indianapolis Center
23:49 39.5719 -86.9694 43° Northeast 507 583 45,000  Level Indianapolis Center
23:50 39.6750 -86.8433 43° Northeast 509 586 45,000  Level Indianapolis Center
23:51 39.7789 -86.7133 44° Northeast 515 593 45,000  Level Indianapolis Center
23:52 39.8828 -86.5847 44° Northeast 513 590 45,000  Level Indianapolis Center
23:53 39.9864 -86.4556 44° Northeast 508 585 45,000 -198 Level Indianapolis Center
23:54 40.0900 -86.3261 44° Northeast 510 587 44,600 -1,255 Descending Indianapolis Center
23:55 40.1739 -86.2211 44° Northeast 516 594 42,700 -2,422 Descending Chicago Center
23:56 40.2736 -86.0939 44° Northeast 504 580 40,200 -2,430 Descending Chicago Center
23:57 40.3719 -85.9711 44° Northeast 489 563 37,800 -2,430 Descending Chicago Center
23:58 40.4683 -85.8486 44° Northeast 485 558 35,300 -2,410 Descending Chicago Center
23:59 40.5689 -85.7197 44° Northeast 504 580 32,900 -2,508 Descending Chicago Center
00:00 40.6767 -85.5825 44° Northeast 512 589 30,200 -2,529 Descending Chicago Center
00:01 40.7711 -85.4572 45° Northeast 489 563 27,800 -2,281 Descending Chicago Center
00:02 40.8600 -85.3431 44° Northeast 454 522 25,600 -2,150 Descending Chicago Center
00:03 40.9378 -85.2275 48° Northeast 431 496 23,500 -1,300 Descending Chicago Center
00:04 41.0125 -85.1186 48° Northeast 411 473 23,000 -248 Descending Chicago Center
00:05 41.0861 -85.0061 49° Northeast 407 468 23,000  Level Chicago Center
00:06 41.1608 -84.8919 49° Northeast 411 473 23,000  Level Chicago Center
00:07 41.2356 -84.7797 48° Northeast 409 471 23,000  Level Chicago Center
00:08 41.3092 -84.6658 49° Northeast 409 471 23,000 -496 Level Chicago Center
00:09 41.3831 -84.5531 49° Northeast 408 470 22,000 -1,562 Descending Chicago Center
00:11 41.5119 -84.3553 49° Northeast 393 452 18,600 -1,786 Descending Cleveland Center
00:12 41.5833 -84.2450 49° Northeast 372 428 17,000 -1,949 Descending Cleveland Center
00:13 41.6528 -84.1339 50° Northeast 358 412 14,800 -2,100 Descending Cleveland Center
00:13 41.6481 -84.1422 233° Southwest 364 419 14,900 -1,680 Climbing Cleveland Center
00:14 41.6767 -84.0983 49° Northeast 346 398 14,100 -1,600 Descending Cleveland Center
00:14 41.7092 -84.0450 51° Northeast 347 399 13,300 -1,667 Descending Cleveland Center
00:14 41.7347 -84.0092 46° Northeast 343 395 12,600 -1,672 Descending Cleveland Center
00:15 41.7714 -83.9494 51° Northeast 343 395 11,600 -1,574 Descending Cleveland Center
00:15 41.7931 -83.9114 53° Northeast 333 383 11,000 -1,600 Descending Cleveland Center
00:16 41.8169 -83.8458 64° Northeast 328 377 10,000 -1,500 Descending Cleveland Center
00:16 41.8292 -83.8075 67° East 299 344 9,500 -1,200 Descending Cleveland Center
00:17 41.8486 -83.7489 66° East 292 336 8,800 -1,180 Descending Cleveland Center
00:17 41.8600 -83.7111 68° East 262 302 8,300 -1,200 Descending Cleveland Center
00:18 41.8767 -83.6625 65° Northeast 259 298 7,600 -1,377 Descending Cleveland Center
00:18 41.8903 -83.6228 65° Northeast 255 293 6,900 -1,500 Descending Cleveland Center
00:19 41.9056 -83.5767 66° East 255 293 6,100 -1,600 Descending Cleveland Center
00:19 41.9253 -83.5522 43° Northeast 217 250 5,300 -1,672 Descending Cleveland Center
00:20 41.9519 -83.5272 35° Northeast 219 252 4,400 -1,279 Descending Cleveland Center
00:20 41.9744 -83.5142 23° Northeast 187 215 4,000 -500 Descending Cleveland Center
00:21 41.9969 -83.4975 29° Northeast 193 222 3,900  Descending Cleveland Center
00:22 42.0189 -83.4814 29° Northeast 166 191 4,000 100 Climbing Cleveland Center
00:22 42.0367 -83.4683 29° Northeast 171 197 4,000 -100 Level Cleveland Center
00:23 42.0569 -83.4531 29° Northeast 145 167 3,900 -300 Descending Cleveland Center
00:23 42.0725 -83.4417 29° Northeast 156 180 3,700 -689 Descending Cleveland Center
00:24 42.0925 -83.4269 29° Northeast 129 148 3,200 -800 Descending Cleveland Center
00:24 42.1056 -83.4186 25° Northeast 144 166 2,900 -800 Descending Cleveland Center
00:25 42.1236 -83.4033 32° Northeast 128 147 2,400 -787 Descending Cleveland Center
00:25 42.1364 -83.3958 24° Northeast 134 154 2,100 -787 Descending Cleveland Center
00:26 42.1569 -83.3800 30° Northeast 131 151 1,600 -900 Descending Cleveland Center
00:26 42.1742 -83.3675 28° Northeast 131 151 1,200 -787 Descending Cleveland Center
00:27 42.1881 -83.3561 31° Northeast 133 153 800 -500 Descending Cleveland Center
00:27 42.2019 -83.3461 28° Northeast 131 151 700 -182 Descending Cleveland Center
00:29 42.2124 -83.3534 333° Northwest  Level Estimated
00:36 42.2124 -83.3534 166° South  Level Estimated

Login

Don't have an account? Register now (free) for customized features, flight alerts, and more!